sat.trackr.live / text

‹ back to catalog

STARLINK-2107

NORAD 47723 · 2021-017B

PAYLOAD ACTIVE UNKNOWN

§ Identity

Operator
Country
US
Launch date
2021-03-04
Launch site
AFETR
Launch vehicle
Mass (kg)
RCS (m²)

Purposes: comms

External: N2YO · Heavens-Above · Gunter

§ Orbital elements

Epoch: 2026-09-09T13:58:32.333088Z

Period
93.66 min
Inclination
53.1606°
Eccentricity
0.0002324
Mean motion
15.37439345 rev/d
Perigee alt
452.1 km
Apogee alt
455.3 km
Semi-major
6,831.8 km
B*
9.8349e-4
RAAN
349.8738°
Arg perigee
22.3092°
Mean anomaly
337.8013°
Rev number
30,713

§ Raw data

STARLINK-21071 47723U 21017B   26252.58231867  .00036422  00000+0  98349-3 0  99932 47723  53.1606 349.8738 0002324  22.3092 337.8013 15.37439345307130

JSON: /api/v1/satellites/47723 · /tle

For live sub-satellite position, see the globe view (requires WebGL).

§ Visibility from observer

Set your observer location to see the next 7 days of passes ≥ 10°. The values pass through the URL so the page stays shareable.

No JS? Fill the form by hand. The geolocation button needs JavaScript.